Wind_Speed
32 30 29 30 30 28 26 24 22 20 18 16 14 12 10 9 10 10 10 11 11 11 12 14 15 15 15 15 15 15 14 12 11 11 12 13 15 16 17 19 20 20 20 19 18 18 18 18 18 18 19 19 20 20 20 19 18 18 18 18 19 20 20
32 32 32 32 32 29 27 24 22 21 18 15 14 12 10 10 10 10 10 11 10 11 13 14 14 14 15 15 15 15 14 11 10 11 11 12 14 15 17 18 19 20 19 19 18 16 15 16 17 17 18 19 20 20 21 21 20 19 19 19 19 20 21
33 34 35 35 33 31 28 25 23 21 18 16 13 10 9 10 10 9 10 10 10 12 13 13 14 14 15 15 15 15 14 12 11 11 11 12 13 15 16 17 18 18 18 18 17 16 15 15 15 16 17 18 19 20 20 20 20 20 20 20 21 22 22
35 36 36 36 33 31 29 26 24 21 18 16 12 9 9 10 9 9 9 10 11 13 13 13 13 13 14 15 14 14 14 12 12 12 12 13 14 15 15 16 16 16 16 16 16 16 16 16 16 16 16 17 18 19 19 20 20 20 20 21 22 23 24
37 37 36 37 34 32 30 27 24 21 18 15 11 9 10 10 9 8 9 11 13 13 13 13 13 13 14 14 14 14 13 12 13 12 12 14 15 16 16 16 14 14 14 15 16 17 17 17 17 17 16 16 17 18 19 20 21 21 21 21 21 22 23
37 38 38 39 36 33 31 27 23 21 17 14 11 10 11 10 9 9 10 12 13 13 13 12 13 13 13 13 13 13 13 12 13 12 12 14 15 16 17 16 14 12 13 14 15 17 18 17 16 16 16 17 18 19 20 21 21 21 21 21 21 21 22
36 40 40 39 38 34 31 27 24 20 17 14 12 12 12 11 9 10 11 12 13 13 13 12 12 13 13 13 13 12 12 12 12 11 11 13 14 15 16 15 13 12 13 14 15 16 16 16 15 15 16 18 19 21 21 21 20 20 21 21 22 22 22
34 39 40 39 37 34 30 27 24 21 18 16 14 14 13 11 10 10 11 12 13 13 12 12 12 13 13 13 12 12 12 12 12 10 11 12 13 14 15 15 14 13 14 14 15 15 15 15 15 15 16 18 20 21 21 20 20 20 20 21 22 21 21
31 35 37 37 35 33 30 27 23 21 18 17 16 15 13 11 10 10 10 12 12 12 11 12 12 12 12 12 11 11 12 12 11 10 11 12 12 13 14 15 15 15 15 15 16 16 15 14 15 16 17 18 20 21 20 19 19 19 20 21 22 22 22
29 33 34 34 34 32 29 26 24 22 19 18 17 15 13 12 10 9 10 11 12 11 11 12 12 12 12 12 11 11 11 12 11 10 10 11 12 13 14 15 16 16 16 17 17 16 16 15 15 16 17 18 20 21 19 18 19 19 19 20 21 22 24
30 31 33 33 33 32 29 28 26 22 20 19 17 15 13 11 9 8 8 9 10 11 11 12 12 12 12 12 12 11 11 11 10 10 10 11 12 13 14 15 16 17 18 17 17 16 16 15 15 16 17 18 19 19 17 17 17 18 20 21 21 22 25
30 31 33 33 32 32 30 29 26 22 20 19 17 15 13 10 8 7 8 8 9 11 11 12 12 12 12 12 12 11 11 10 10 10 10 10 12 13 14 16 17 18 19 18 17 16 16 15 15 15 16 17 18 17 16 18 19 19 21 22 22 22 26
29 30 32 32 32 32 31 29 27 23 21 19 17 15 12 9 8 8 8 7 9 11 11 12 12 12 12 12 12 11 10 9 10 11 11 11 12 13 15 16 17 18 19 19 17 16 16 16 16 16 16 17 18 18 18 19 21 21 23 23 22 22 25
27 28 29 30 32 33 32 30 28 24 22 20 17 15 12 10 10 10 8 7 9 11 11 11 12 12 12 11 11 11 10 10 11 12 12 13 14 15 15 16 17 18 19 19 18 17 16 16 17 17 17 18 20 20 20 20 21 23 24 24 23 22 24
27 28 29 30 33 34 32 31 29 26 23 20 17 15 12 11 12 11 8 8 9 11 11 11 12 12 11 11 11 10 10 11 12 12 13 14 15 15 16 16 17 18 19 20 19 18 17 17 17 18 19 19 20 21 22 21 20 23 26 25 23 22 24
26 29 31 33 34 34 32 31 29 26 22 20 17 15 13 13 13 11 8 9 10 10 11 11 12 11 11 11 10 9 10 11 11 12 13 15 16 16 16 17 17 18 19 20 20 19 19 18 18 18 19 20 21 21 21 21 21 23 25 25 22 21 23
26 29 32 34 34 33 32 31 29 26 23 20 18 16 15 15 13 10 9 10 10 10 10 11 11 10 11 11 10 9 10 10 11 12 14 15 16 16 17 17 18 19 19 20 20 21 20 19 18 18 18 19 19 18 19 21 21 23 24 24 22 21 23
27 31 33 34 34 33 33 32 29 26 23 20 18 17 16 15 12 10 9 9 9 9 10 10 10 10 11 11 10 10 10 11 11 13 14 15 16 16 17 19 19 18 18 19 20 21 20 19 18 17 17 17 17 18 18 20 21 22 22 22 21 21 22
28 31 32 33 33 33 33 32 29 25 21 19 19 18 15 13 11 9 8 9 10 10 10 10 9 10 10 11 11 11 11 11 12 13 14 15 16 17 18 20 19 17 17 18 20 21 20 18 17 17 17 17 18 19 19 19 19 19 20 20 20 20 21
27 29 31 32 32 32 32 30 27 22 20 19 19 17 15 14 12 10 9 10 10 10 10 9 9 10 10 11 12 12 13 13 13 14 15 15 16 17 19 20 18 17 18 19 19 19 19 18 17 17 18 18 19 20 21 19 17 16 17 18 19 19 20
25 27 30 31 31 31 30 27 24 21 20 20 20 18 17 15 14 12 12 11 10 10 10 10 10 10 11 12 12 13 14 14 14 14 14 14 15 17 19 18 17 17 18 18 17 17 18 18 17 18 18 19 19 20 21 19 15 14 16 17 18 18 18
21 25 29 30 29 27 25 23 21 20 20 20 20 19 18 17 15 14 14 12 9 10 11 11 11 11 12 13 13 13 13 13 14 14 14 14 15 16 17 17 17 16 16 16 16 16 17 18 18 18 19 19 19 20 22 20 15 14 14 15 17 18 19
18 23 27 26 23 21 20 19 19 19 20 20 20 20 19 17 16 16 16 13 10 10 11 12 12 12 13 14 14 14 13 13 14 14 13 14 14 15 16 17 17 16 16 16 16 17 18 19 19 19 19 20 19 20 22 20 15 14 14 15 17 19 20
17 23 25 22 20 19 19 19 18 18 19 19 20 21 20 18 17 17 17 14 11 11 12 13 13 12 13 14 14 14 13 13 14 13 13 13 13 14 15 16 17 17 16 17 18 19 19 19 19 18 18 19 19 19 21 21 16 14 15 16 18 20 21
18 22 20 18 17 18 17 17 17 17 18 20 22 22 21 20 19 20 20 16 12 12 14 13 12 12 12 13 14 14 14 14 13 13 12 12 13 13 15 16 17 17 17 17 18 18 18 18 18 18 17 18 18 18 20 22 17 13 14 17 18 20 21
18 19 18 16 16 16 16 15 16 18 19 21 24 24 22 21 21 22 22 18 14 14 15 13 11 10 12 14 16 16 15 15 14 13 12 13 13 13 14 14 16 17 16 16 16 17 17 18 19 19 18 17 18 18 19 21 18 13 13 15 18 20 20
17 17 15 15 15 15 16 17 18 19 20 22 24 24 24 23 22 23 23 19 17 16 14 12 10 11 14 16 17 16 16 15 15 14 13 13 13 13 12 13 14 15 15 15 16 16 18 19 19 20 19 18 18 17 17 19 18 15 14 15 16 18 20
16 16 15 15 15 15 17 19 20 21 21 23 24 25 26 25 23 23 23 21 20 17 14 12 12 13 15 17 17 16 16 16 16 15 15 14 13 13 12 11 12 13 14 15 16 17 18 20 19 19 19 18 17 17 16 16 17 16 15 15 15 17 18
14 14 15 15 16 17 18 20 21 21 22 24 24 25 27 26 23 23 24 23 21 17 14 13 14 15 17 19 18 17 16 16 16 17 17 15 13 12 12 11 11 12 13 14 15 17 18 18 18 18 19 18 17 17 15 15 15 15 14 14 15 16 17
13 13 14 15 16 18 19 20 22 22 24 24 24 25 27 25 23 23 24 24 21 18 16 16 16 18 19 20 19 18 18 17 17 17 18 16 12 11 12 12 11 11 11 12 14 15 16 17 17 18 18 18 18 17 16 15 15 15 14 14 15 16 17
12 13 13 14 16 17 19 21 23 24 25 25 25 26 26 23 21 22 23 23 21 19 18 18 19 20 21 20 19 19 18 18 17 17 18 17 13 12 13 13 12 11 11 12 13 15 16 17 17 18 18 18 18 17 17 16 15 15 14 14 15 16 17
10 11 12 13 15 17 19 21 23 24 25 25 26 27 25 21 20 21 21 20 20 19 18 19 21 22 22 21 19 17 16 17 17 17 17 16 14 13 14 14 13 12 11 12 14 15 16 17 18 18 18 18 17 17 17 17 16 15 14 14 15 16 18
9 10 12 14 16 18 20 21 22 23 24 24 25 25 22 19 19 20 19 18 19 19 20 22 22 21 21 20 19 16 15 16 17 17 17 16 14 13 14 14 14 12 12 13 14 15 16 17 18 19 18 18 17 17 16 16 16 15 14 14 14 16 18
9 10 12 13 15 17 18 20 21 21 22 22 22 20 18 18 19 19 18 18 19 20 21 23 22 20 20 19 17 16 15 15 16 16 17 16 13 12 12 13 13 13 13 14 15 15 15 16 17 18 18 17 17 16 16 15 16 16 15 14 14 15 16
8 9 10 11 13 15 16 18 19 20 20 20 18 16 15 16 17 18 18 19 20 20 21 21 20 19 19 17 16 16 15 14 13 13 14 14 12 10 10 13 15 15 15 16 16 15 15 16 17 17 16 15 15 16 16 16 16 16 16 16 15 14 14
6 7 9 11 12 14 15 16 16 16 16 16 15 13 13 15 17 18 19 20 19 19 20 20 20 19 18 17 16 16 14 12 10 11 13 13 12 10 11 15 16 15 15 16 15 14 14 15 16 16 16 15 14 15 16 16 17 17 17 16 15 13 12
6 8 10 13 14 15 15 15 14 13 13 12 12 12 13 15 17 18 19 18 18 18 19 20 19 18 18 18 17 15 15 13 11 12 13 14 14 13 13 15 16 14 14 15 15 14 14 15 15 15 15 15 15 15 15 16 17 16 16 16 15 14 12
9 10 12 14 15 15 14 13 12 11 11 11 11 12 13 15 16 16 17 17 17 18 19 19 18 18 18 18 17 17 16 15 14 15 15 14 14 14 14 15 15 13 12 13 14 14 13 13 13 14 14 15 16 15 15 15 15 16 16 15 14 13 12
Wind_Direction
206 206 205 200 197 197 200 204 206 208 210 212 215 222 237 254 264 261 257 261 268 276 286 294 298 301 309 316 322 324 324 322 318 317 319 320 319 319 320 320 321 325 327 329 329 325 320 316 314 313 312 311 309 308 306 304 301 297 295 292 287 284 282
204 205 204 200 198 199 200 204 207 209 212 214 217 225 245 260 264 258 257 263 271 281 292 298 300 305 311 318 323 326 327 324 317 316 316 318 320 320 320 320 320 323 326 329 331 330 327 321 316 315 314 313 312 310 309 307 304 301 298 294 289 285 283
204 205 203 201 200 200 200 204 208 210 212 215 219 232 253 260 256 253 258 266 275 287 295 299 303 307 312 319 323 324 325 322 315 314 316 320 324 323 320 319 319 322 324 326 328 329 330 327 322 319 317 316 316 314 312 310 307 306 302 298 295 291 287
205 205 203 202 202 202 202 205 208 208 210 215 222 237 251 250 245 249 259 268 277 287 294 299 304 306 311 318 320 319 319 318 314 315 319 324 325 325 323 320 318 319 320 321 322 322 324 324 323 322 320 319 318 315 313 311 309 308 306 303 300 296 292
206 206 204 204 204 204 204 205 207 207 207 215 223 233 239 237 239 249 261 269 278 287 294 299 301 305 310 315 316 315 314 314 314 315 321 324 326 328 329 324 318 314 315 316 318 318 319 319 320 322 322 320 317 314 311 308 308 308 308 307 305 303 299
204 206 206 205 205 205 205 205 206 204 205 214 221 226 230 231 237 249 261 272 281 288 293 297 299 303 308 311 313 312 309 312 314 316 320 324 328 333 335 332 326 318 315 316 316 318 318 317 318 319 320 318 315 313 311 309 310 310 310 309 308 306 303
205 206 207 207 206 206 205 204 203 201 202 212 217 221 226 229 236 248 263 276 283 288 291 294 296 300 304 308 311 310 307 310 313 314 318 324 331 337 339 339 335 326 322 321 319 319 317 315 315 314 315 316 315 314 313 312 312 312 313 313 312 310 306
209 209 209 209 208 206 204 202 201 199 202 211 217 221 225 228 237 250 266 278 283 287 290 292 294 297 301 305 307 306 304 306 309 310 316 324 333 339 341 342 340 334 331 328 324 322 317 311 310 311 314 317 318 316 314 312 313 316 320 320 319 317 311
213 213 213 211 209 206 204 202 200 199 203 213 219 222 226 231 238 252 268 279 283 286 288 289 293 296 299 302 303 301 298 300 302 305 314 323 330 337 339 338 337 334 332 330 328 325 318 309 305 307 311 318 320 317 314 314 316 320 325 326 324 321 318
214 215 215 213 210 206 203 201 200 200 205 213 219 223 227 232 239 256 271 278 281 284 286 289 293 295 296 299 299 296 293 294 295 300 311 320 326 331 331 329 327 328 326 325 325 326 323 315 306 303 307 314 319 317 316 317 319 323 327 327 325 322 321
214 214 214 213 210 205 202 202 201 201 206 214 219 223 228 231 241 258 271 278 279 283 287 289 292 294 295 298 296 291 288 286 288 297 307 315 320 323 323 322 322 322 321 320 320 322 323 321 315 310 306 309 317 321 324 325 324 327 329 327 325 321 321
212 212 213 211 207 203 201 202 202 202 208 215 219 224 226 228 238 253 267 278 282 285 287 289 292 294 295 296 293 287 284 282 285 293 301 308 312 316 318 319 319 320 319 317 317 317 319 321 321 318 312 311 315 319 325 330 330 329 328 326 323 320 320
212 211 212 209 204 201 200 202 203 205 210 216 219 221 221 224 234 246 260 279 287 286 286 288 291 294 295 294 290 287 283 280 282 289 296 302 307 310 312 314 315 318 319 317 316 315 316 318 319 320 318 317 316 315 316 324 331 330 327 326 322 318 319
211 210 210 206 202 200 200 202 204 206 212 217 219 218 218 224 233 240 255 280 289 285 284 288 289 292 294 291 290 289 284 280 281 286 294 300 304 307 308 308 313 317 319 320 318 315 313 314 316 317 318 317 316 313 310 316 328 330 328 326 323 320 321
206 206 205 203 201 199 201 204 205 208 213 217 217 216 218 229 233 238 256 283 290 284 281 285 287 291 291 290 293 291 284 281 283 287 294 300 305 307 305 306 312 317 320 322 321 318 313 311 312 315 316 316 316 313 310 312 322 327 327 328 326 323 325
202 202 202 202 201 200 203 207 207 209 215 217 216 215 222 230 231 238 262 284 286 280 276 280 286 289 290 292 295 288 279 279 284 289 297 304 308 308 306 307 312 316 319 321 322 320 315 309 308 312 315 317 318 316 314 313 316 322 326 328 328 325 328
199 202 204 203 200 201 205 207 207 211 215 216 214 215 224 229 230 241 265 280 281 272 269 275 283 288 289 292 291 282 278 280 284 291 300 306 309 308 307 309 312 315 317 318 319 319 317 311 308 311 314 316 319 321 320 317 316 320 324 328 328 326 330
201 204 205 203 200 202 206 206 207 211 214 214 213 216 222 225 228 245 266 276 270 259 262 272 280 285 287 288 286 282 281 283 287 293 300 305 307 306 309 312 314 314 314 315 317 317 317 313 310 312 315 317 320 324 323 319 318 320 322 325 327 327 332
208 208 206 202 199 202 206 206 208 212 214 213 214 216 220 222 229 247 261 263 256 251 260 270 274 280 285 285 284 283 284 285 288 295 300 305 307 308 314 317 316 315 314 314 315 315 316 315 313 313 314 316 322 326 324 320 318 318 318 322 327 328 333
213 210 206 201 200 204 206 206 209 214 216 215 216 217 218 222 230 242 248 250 251 252 259 265 269 277 283 284 283 283 284 284 287 294 301 306 309 313 319 321 318 315 314 314 314 314 316 316 314 313 314 317 323 327 326 322 316 313 314 322 329 331 334
213 211 206 201 201 205 206 206 211 216 216 216 217 216 218 223 229 236 239 243 248 252 256 263 269 276 282 283 284 284 283 282 284 290 298 306 310 316 323 325 322 318 316 315 315 316 316 317 315 313 314 318 323 326 326 324 314 307 313 325 335 338 337
211 207 202 200 202 205 206 208 213 217 218 219 219 218 221 226 230 233 235 238 246 253 257 262 269 276 282 283 285 286 285 281 282 286 294 303 309 317 326 331 329 324 319 318 319 317 316 316 315 314 314 318 322 324 325 325 314 304 314 331 340 343 343
211 201 197 199 204 205 207 212 216 219 222 223 223 224 226 229 230 232 233 235 244 253 255 259 267 275 280 283 285 288 287 282 281 285 292 299 306 318 327 330 330 326 321 320 322 321 319 317 315 314 315 317 320 321 323 325 317 306 315 330 337 341 345
205 197 195 200 204 205 210 215 218 222 225 227 229 230 230 230 230 231 235 237 243 251 253 257 265 273 281 286 286 282 278 275 277 283 290 296 304 316 323 325 326 323 320 321 323 324 323 320 318 317 318 318 319 320 321 324 319 307 313 325 330 334 340
194 192 194 201 206 209 214 218 222 226 228 232 237 235 232 231 230 230 237 241 243 249 253 256 267 279 284 285 280 271 265 265 268 276 286 293 302 311 316 319 320 319 318 319 321 323 324 323 321 320 321 322 321 320 320 324 323 312 312 322 326 328 332
187 189 195 202 206 211 217 219 224 229 234 243 247 242 235 233 230 232 239 243 246 250 255 260 272 282 280 278 276 272 267 263 262 269 281 291 299 307 311 313 314 315 315 316 317 319 320 321 320 319 320 324 325 323 321 324 326 319 311 317 323 325 327
186 193 200 206 208 213 217 221 226 235 244 252 253 249 243 238 233 236 241 244 247 253 258 263 272 276 275 277 281 281 275 268 263 267 276 285 294 302 305 306 308 310 310 310 311 312 315 319 320 320 321 324 327 326 322 323 326 322 313 316 324 326 327
189 196 204 209 212 218 224 229 234 242 250 255 254 253 251 245 239 240 243 245 250 257 260 261 266 270 273 280 286 286 280 273 267 267 273 280 288 296 298 299 305 308 305 304 306 308 313 317 319 322 324 326 329 330 326 323 325 325 320 319 325 329 328
197 205 211 214 220 229 234 237 242 247 252 255 257 257 257 253 247 244 245 247 252 258 258 256 260 266 272 281 286 284 281 276 269 267 270 274 281 290 290 292 300 304 302 303 306 311 316 317 318 323 327 327 329 332 331 325 324 327 326 322 324 329 329
210 216 221 226 233 239 242 244 248 251 253 256 260 261 262 259 252 247 247 249 253 256 255 254 256 261 270 278 282 281 281 278 273 270 266 264 272 285 285 286 293 297 298 304 310 314 318 319 319 323 327 328 328 330 333 330 324 325 327 326 326 329 329
216 222 228 235 241 245 249 252 254 256 258 262 264 267 268 263 253 250 251 251 252 255 256 254 253 258 266 274 279 283 284 280 276 272 261 255 264 274 274 278 285 288 293 304 310 314 318 320 320 322 327 330 328 327 331 331 325 322 324 327 329 331 333
218 227 235 242 247 252 256 260 262 264 266 268 269 273 274 265 255 256 256 251 251 256 257 253 250 255 264 271 277 285 284 278 277 272 259 252 259 264 265 272 278 281 289 299 307 313 316 319 320 323 328 331 330 326 328 329 326 320 318 322 327 331 336
223 232 240 245 251 256 260 265 269 270 271 272 274 276 274 265 257 256 252 248 252 257 255 249 247 255 265 271 275 282 281 278 279 272 258 249 251 258 266 271 273 275 286 295 302 308 313 316 318 322 326 331 333 330 329 328 326 321 316 318 324 331 336
227 237 245 250 256 261 265 268 270 270 271 273 274 274 269 260 254 249 245 247 255 258 252 245 247 259 268 268 270 275 278 281 281 269 253 244 249 262 269 269 267 272 283 292 298 304 309 313 315 318 323 329 333 333 332 331 328 325 321 319 322 330 336
239 249 258 266 271 274 275 273 270 269 269 270 271 269 262 252 246 243 245 254 259 256 249 247 254 263 264 262 265 271 275 282 280 261 241 237 249 263 263 259 262 271 282 291 296 301 306 308 310 314 320 325 330 333 333 333 332 332 329 325 323 327 333
262 275 284 289 289 285 281 275 271 269 269 270 269 262 251 243 241 246 254 259 258 253 249 252 259 262 259 257 261 265 271 276 268 246 233 237 250 260 256 255 259 267 279 289 294 298 303 304 305 311 318 321 325 329 331 332 333 333 332 329 325 323 328
283 289 291 290 288 284 281 278 277 276 275 274 267 255 247 245 249 256 260 259 255 252 253 258 262 260 257 256 258 263 269 270 257 243 240 247 255 254 249 252 259 266 277 288 293 295 298 301 304 311 317 318 321 324 326 327 327 328 330 332 328 322 321
276 280 282 282 282 283 285 288 290 288 284 279 271 264 261 262 266 269 266 260 256 256 258 263 264 261 259 260 263 268 271 271 263 254 248 248 251 251 249 251 258 267 276 285 291 293 295 299 305 313 317 318 319 321 322 322 323 325 328 331 331 326 320
Height
1530 1533 1535 1537 1539 1541 1543 1545 1546 1548 1550 1551 1552 1553 1554 1554 1555 1555 1556 1556 1557 1556 1556 1555 1555 1554 1553 1552 1551 1550 1549 1547 1546 1545 1544 1543 1542 1540 1539 1538 1537 1536 1534 1533 1532 1530 1529 1528 1527 1526 1525 1524 1523 1522 1522 1521 1521 1520 1520 1519 1519 1518 1519
1528 1530 1533 1535 1537 1539 1541 1543 1545 1546 1548 1550 1551 1551 1552 1553 1553 1554 1554 1554 1554 1554 1554 1553 1553 1552 1551 1550 1549 1548 1547 1546 1545 1544 1543 1542 1541 1539 1538 1537 1535 1534 1533 1531 1530 1529 1528 1526 1525 1524 1524 1523 1522 1521 1520 1519 1518 1518 1517 1517 1516 1516 1516
1525 1528 1529 1532 1535 1537 1539 1541 1543 1545 1547 1548 1549 1550 1551 1551 1551 1552 1552 1552 1552 1552 1552 1551 1551 1550 1549 1548 1547 1546 1545 1544 1543 1543 1542 1541 1540 1539 1537 1536 1534 1533 1532 1530 1529 1528 1527 1525 1524 1523 1522 1522 1521 1520 1519 1518 1517 1516 1515 1514 1514 1513 1513
1522 1524 1527 1530 1532 1535 1538 1539 1542 1543 1545 1547 1547 1548 1549 1549 1550 1550 1550 1550 1550 1550 1550 1549 1549 1548 1547 1546 1545 1544 1543 1542 1542 1541 1540 1539 1539 1538 1536 1535 1533 1532 1530 1529 1528 1526 1525 1524 1523 1522 1521 1520 1520 1519 1518 1517 1515 1514 1513 1512 1511 1511 1510
1520 1522 1525 1528 1530 1533 1536 1537 1540 1541 1543 1545 1546 1547 1547 1548 1548 1548 1548 1548 1548 1548 1548 1547 1547 1546 1545 1544 1543 1542 1541 1541 1540 1539 1539 1538 1537 1536 1535 1533 1532 1531 1529 1528 1527 1525 1524 1523 1522 1521 1520 1519 1518 1517 1516 1515 1514 1513 1511 1510 1509 1508 1507
1517 1519 1522 1524 1527 1531 1533 1536 1538 1540 1542 1543 1544 1545 1545 1546 1546 1546 1546 1546 1546 1546 1546 1545 1545 1544 1544 1542 1541 1541 1540 1539 1538 1538 1537 1536 1535 1534 1533 1532 1530 1529 1528 1527 1526 1525 1523 1522 1520 1519 1519 1518 1517 1516 1514 1513 1512 1511 1510 1508 1507 1506 1505
1513 1516 1519 1522 1525 1528 1531 1534 1536 1538 1540 1542 1543 1544 1544 1544 1544 1544 1545 1544 1544 1544 1544 1543 1543 1542 1542 1541 1540 1539 1538 1538 1537 1536 1536 1535 1534 1533 1532 1531 1529 1528 1527 1526 1525 1524 1522 1521 1519 1518 1517 1516 1515 1514 1513 1512 1510 1509 1508 1506 1505 1504 1502
1512 1514 1516 1520 1523 1527 1530 1532 1535 1536 1538 1540 1541 1542 1542 1542 1542 1543 1543 1543 1542 1542 1542 1541 1541 1540 1540 1539 1538 1537 1537 1536 1536 1535 1535 1534 1533 1532 1531 1530 1529 1527 1526 1525 1524 1522 1521 1519 1518 1517 1516 1515 1514 1512 1511 1510 1509 1507 1506 1504 1503 1501 1499
1511 1513 1515 1519 1522 1525 1528 1530 1533 1535 1536 1538 1539 1540 1541 1541 1541 1541 1541 1541 1540 1540 1540 1540 1539 1538 1538 1537 1536 1536 1535 1535 1535 1534 1533 1532 1532 1531 1530 1529 1528 1527 1525 1524 1523 1521 1519 1518 1517 1515 1514 1513 1512 1511 1509 1508 1507 1506 1504 1503 1501 1499 1497
1509 1511 1513 1517 1520 1524 1527 1529 1531 1532 1534 1536 1537 1538 1539 1539 1539 1540 1539 1539 1539 1538 1538 1537 1537 1536 1536 1535 1535 1534 1534 1534 1533 1533 1532 1531 1531 1530 1529 1528 1527 1526 1524 1523 1521 1520 1518 1516 1515 1514 1513 1512 1511 1509 1508 1507 1505 1504 1503 1501 1499 1497 1495
1506 1509 1511 1515 1518 1521 1524 1526 1528 1531 1533 1535 1535 1537 1537 1537 1538 1538 1538 1538 1536 1536 1536 1535 1535 1535 1534 1534 1533 1533 1533 1532 1532 1532 1531 1530 1530 1529 1528 1527 1526 1525 1523 1521 1520 1519 1517 1515 1513 1512 1511 1510 1509 1508 1507 1505 1504 1503 1501 1499 1497 1494 1492
1504 1506 1508 1512 1515 1519 1522 1524 1527 1529 1531 1533 1534 1535 1535 1536 1536 1536 1536 1536 1535 1534 1534 1533 1533 1533 1532 1532 1531 1531 1531 1531 1531 1530 1529 1529 1528 1527 1527 1525 1524 1523 1521 1520 1518 1517 1516 1514 1512 1511 1509 1508 1507 1506 1505 1504 1503 1501 1499 1497 1494 1492 1490
1503 1505 1507 1510 1513 1516 1520 1522 1525 1527 1529 1531 1532 1533 1533 1534 1534 1534 1534 1534 1533 1532 1532 1532 1531 1531 1530 1530 1530 1529 1529 1529 1529 1529 1528 1527 1526 1526 1525 1524 1522 1521 1520 1518 1517 1515 1514 1512 1511 1509 1508 1507 1505 1504 1503 1502 1501 1499 1496 1494 1492 1490 1487
1501 1503 1506 1509 1511 1514 1517 1520 1522 1525 1527 1528 1530 1531 1531 1532 1532 1532 1532 1532 1531 1531 1530 1530 1529 1529 1529 1528 1528 1528 1528 1528 1528 1527 1526 1526 1524 1524 1523 1521 1521 1519 1518 1516 1515 1514 1512 1511 1509 1508 1506 1505 1504 1502 1501 1500 1498 1497 1494 1492 1490 1488 1485
1498 1501 1504 1507 1509 1512 1515 1517 1520 1522 1525 1526 1527 1528 1529 1530 1530 1530 1530 1530 1529 1529 1529 1528 1528 1528 1527 1527 1526 1526 1526 1526 1526 1525 1525 1524 1522 1522 1520 1520 1519 1517 1516 1515 1513 1512 1510 1509 1508 1506 1505 1503 1502 1500 1499 1498 1496 1495 1492 1490 1488 1486 1483
1495 1498 1501 1503 1506 1510 1513 1515 1518 1520 1523 1524 1525 1526 1527 1527 1528 1528 1528 1528 1528 1527 1527 1527 1526 1526 1526 1525 1525 1525 1525 1525 1524 1524 1523 1522 1521 1520 1518 1518 1517 1516 1514 1513 1511 1510 1508 1507 1506 1504 1503 1502 1500 1498 1497 1495 1494 1493 1491 1488 1486 1484 1481
1494 1496 1498 1501 1504 1508 1510 1513 1516 1519 1520 1521 1523 1524 1525 1525 1526 1526 1526 1526 1526 1526 1525 1525 1525 1524 1524 1524 1524 1524 1523 1523 1523 1522 1521 1520 1519 1518 1517 1516 1515 1514 1512 1511 1510 1508 1507 1505 1504 1503 1502 1500 1498 1497 1495 1493 1492 1490 1489 1486 1484 1482 1479
1491 1494 1496 1499 1502 1505 1508 1511 1514 1516 1517 1519 1521 1522 1522 1523 1523 1524 1524 1524 1524 1524 1524 1523 1523 1523 1522 1522 1522 1522 1522 1522 1521 1520 1519 1518 1517 1516 1515 1514 1513 1511 1510 1509 1508 1506 1505 1504 1503 1501 1500 1498 1497 1495 1493 1492 1490 1488 1486 1484 1482 1480 1477
1489 1491 1494 1497 1500 1503 1506 1508 1511 1514 1515 1517 1519 1519 1520 1521 1521 1522 1522 1522 1522 1522 1522 1522 1522 1521 1521 1521 1521 1520 1520 1520 1519 1519 1518 1517 1516 1515 1513 1512 1510 1509 1508 1507 1506 1504 1503 1502 1501 1500 1499 1497 1495 1493 1491 1490 1488 1486 1484 1482 1480 1478 1475
1488 1490 1493 1496 1498 1501 1504 1507 1510 1512 1514 1516 1517 1517 1518 1518 1519 1520 1520 1521 1520 1520 1520 1520 1520 1520 1519 1519 1519 1519 1519 1518 1518 1517 1516 1515 1514 1513 1512 1510 1509 1507 1506 1505 1504 1503 1502 1501 1499 1498 1497 1495 1493 1491 1489 1487 1486 1484 1482 1480 1479 1476 1474
1486 1489 1492 1494 1497 1499 1503 1506 1509 1511 1512 1513 1514 1515 1515 1516 1517 1518 1518 1518 1518 1518 1518 1518 1518 1518 1518 1518 1518 1517 1517 1517 1516 1515 1515 1514 1513 1511 1510 1509 1507 1506 1505 1503 1502 1501 1500 1499 1497 1496 1495 1493 1491 1489 1487 1485 1483 1482 1480 1478 1477 1474 1472
1485 1487 1490 1493 1496 1499 1502 1505 1507 1509 1510 1511 1512 1512 1512 1513 1514 1515 1516 1516 1516 1516 1516 1516 1516 1516 1516 1516 1516 1516 1515 1515 1514 1514 1513 1512 1511 1510 1509 1507 1506 1504 1503 1502 1501 1500 1498 1497 1496 1494 1493 1491 1489 1487 1485 1483 1482 1480 1478 1477 1475 1473 1470
1485 1487 1490 1493 1496 1499 1502 1504 1505 1507 1508 1509 1509 1509 1510 1511 1512 1513 1513 1514 1514 1514 1514 1514 1514 1514 1514 1514 1514 1514 1514 1513 1512 1512 1511 1510 1510 1508 1507 1506 1504 1503 1502 1500 1500 1498 1497 1495 1494 1492 1491 1489 1487 1485 1483 1481 1480 1478 1477 1475 1473 1471 1469
1485 1488 1491 1494 1497 1499 1501 1502 1503 1505 1506 1506 1506 1506 1507 1508 1509 1510 1511 1511 1511 1512 1512 1512 1512 1512 1512 1512 1512 1512 1511 1511 1510 1510 1509 1509 1508 1507 1506 1505 1503 1502 1500 1499 1498 1497 1495 1494 1492 1491 1489 1487 1486 1483 1481 1480 1478 1477 1475 1473 1472 1470 1468
1485 1488 1491 1493 1496 1498 1499 1501 1502 1503 1504 1503 1503 1503 1504 1505 1506 1507 1508 1508 1509 1509 1509 1510 1510 1510 1510 1510 1509 1509 1508 1508 1508 1508 1507 1507 1506 1505 1504 1503 1502 1501 1499 1498 1497 1495 1494 1492 1490 1489 1488 1486 1484 1482 1480 1478 1477 1475 1474 1472 1470 1468 1466
1485 1488 1491 1493 1495 1496 1498 1499 1500 1500 1500 1500 1499 1500 1501 1502 1503 1504 1505 1506 1506 1506 1506 1507 1508 1508 1508 1507 1506 1506 1506 1506 1505 1505 1505 1505 1504 1503 1503 1501 1500 1499 1498 1497 1495 1494 1493 1491 1489 1488 1486 1484 1482 1480 1478 1476 1475 1474 1472 1470 1469 1467 1465
1486 1488 1490 1492 1494 1495 1496 1497 1497 1497 1497 1497 1497 1498 1499 1500 1501 1501 1502 1503 1504 1503 1504 1505 1506 1506 1505 1505 1504 1504 1504 1503 1503 1503 1502 1502 1502 1501 1501 1500 1499 1498 1496 1495 1494 1493 1492 1490 1488 1486 1484 1482 1481 1479 1477 1475 1473 1472 1471 1469 1468 1466 1464
1486 1488 1490 1491 1492 1493 1494 1494 1494 1495 1495 1495 1495 1496 1496 1497 1498 1499 1500 1501 1501 1501 1502 1503 1503 1503 1503 1502 1502 1502 1501 1501 1501 1501 1500 1500 1500 1499 1499 1498 1497 1496 1495 1494 1493 1491 1490 1489 1487 1485 1483 1481 1479 1477 1476 1474 1472 1471 1469 1468 1466 1465 1462
1485 1487 1488 1489 1490 1491 1491 1492 1492 1492 1493 1493 1493 1493 1494 1495 1496 1497 1497 1498 1498 1499 1500 1500 1501 1500 1500 1499 1499 1499 1499 1499 1498 1498 1498 1498 1498 1497 1497 1496 1495 1494 1493 1492 1491 1490 1489 1487 1486 1484 1481 1479 1477 1476 1474 1473 1471 1469 1468 1467 1465 1463 1461
1485 1486 1487 1488 1489 1489 1490 1490 1490 1491 1491 1491 1491 1491 1492 1493 1493 1494 1495 1495 1496 1497 1497 1498 1498 1497 1497 1497 1496 1496 1496 1496 1496 1496 1496 1495 1495 1495 1495 1494 1493 1492 1492 1491 1490 1489 1487 1486 1484 1482 1480 1478 1476 1475 1473 1472 1470 1468 1467 1465 1464 1462 1460
1484 1486 1486 1487 1488 1488 1489 1489 1488 1489 1489 1489 1489 1489 1489 1490 1491 1491 1492 1492 1493 1494 1494 1495 1495 1494 1494 1494 1494 1494 1494 1493 1493 1493 1493 1493 1493 1493 1492 1492 1491 1491 1490 1489 1489 1487 1486 1484 1483 1481 1479 1477 1475 1473 1472 1470 1469 1467 1466 1464 1463 1461 1459
1484 1485 1485 1486 1487 1487 1487 1487 1486 1487 1487 1486 1487 1486 1487 1488 1488 1488 1489 1490 1490 1491 1491 1492 1491 1491 1491 1491 1491 1492 1491 1491 1491 1490 1490 1491 1491 1490 1490 1490 1489 1489 1488 1488 1487 1486 1484 1483 1481 1480 1478 1476 1474 1472 1470 1469 1468 1466 1464 1463 1462 1460 1458
1483 1483 1484 1485 1485 1485 1485 1484 1484 1484 1484 1484 1484 1483 1484 1484 1485 1485 1486 1487 1487 1488 1488 1488 1488 1488 1489 1489 1489 1489 1489 1488 1488 1488 1487 1489 1489 1489 1488 1487 1487 1487 1486 1485 1485 1484 1483 1482 1480 1478 1476 1474 1472 1471 1469 1468 1466 1465 1463 1462 1460 1459 1457
1481 1482 1483 1483 1483 1483 1483 1482 1482 1482 1481 1481 1480 1480 1481 1481 1481 1482 1483 1484 1484 1485 1485 1485 1485 1486 1486 1486 1486 1486 1486 1486 1486 1485 1485 1486 1487 1486 1486 1485 1485 1484 1484 1483 1483 1482 1481 1480 1478 1476 1474 1472 1471 1470 1468 1467 1465 1464 1462 1461 1459 1458 1456
1480 1481 1481 1481 1481 1481 1480 1480 1479 1478 1478 1477 1477 1477 1478 1478 1479 1480 1480 1481 1481 1481 1482 1483 1483 1483 1483 1483 1483 1483 1483 1483 1483 1483 1484 1484 1484 1484 1484 1483 1483 1482 1482 1481 1480 1480 1479 1478 1477 1475 1473 1471 1470 1468 1467 1466 1464 1462 1461 1459 1458 1457 1455
1479 1479 1479 1479 1479 1478 1478 1477 1476 1476 1475 1475 1475 1475 1476 1476 1477 1478 1478 1478 1479 1479 1480 1480 1480 1480 1480 1480 1481 1481 1481 1481 1481 1482 1482 1482 1482 1482 1482 1481 1480 1480 1479 1479 1478 1478 1477 1476 1475 1473 1472 1470 1469 1467 1466 1465 1463 1462 1460 1459 1457 1456 1454
1477 1477 1477 1477 1476 1476 1475 1475 1474 1474 1474 1473 1473 1474 1474 1474 1475 1475 1475 1476 1476 1477 1477 1477 1477 1478 1478 1478 1478 1479 1479 1479 1480 1480 1480 1480 1480 1480 1479 1478 1478 1477 1477 1476 1476 1475 1475 1474 1473 1472 1471 1469 1468 1466 1465 1464 1463 1461 1460 1458 1456 1455 1453
1475 1475 1475 1475 1474 1474 1473 1473 1473 1473 1472 1472 1473 1473 1473 1473 1473 1473 1473 1474 1474 1474 1474 1474 1475 1475 1475 1476 1476 1477 1477 1477 1477 1477 1477 1477 1477 1477 1476 1476 1475 1475 1475 1474 1474 1473 1473 1472 1472 1471 1469 1468 1467 1465 1464 1463 1462 1460 1459 1457 1456 1455 1453